SILO ALERT LOG


Silo ID Alert Type Alert Message Silo Type Points Depth (mm) Strength Temperature (°C) Humidity (%) Height (mm) Volume (㎥) Weight (t) Flag Time
WJWJR05 Humidity 습도센서 측정값이 80% 초과 66 5220 2944 26.6 80.1 2510 283.874 179.465 0 2026-07-09 00:25:51.000
WJWJR01 Humidity 습도센서 측정값이 80% 초과 73 7530 1224 24 82.6 109 12.441 7.865 0 2026-07-08 23:25:56.000
WJWJR01 Humidity 습도센서 측정값이 80% 초과 75 7500 1227 24.1 82.2 139 15.834 10.01 0 2026-07-08 22:25:58.000
WJWJR01 Humidity 습도센서 측정값이 80% 초과 77 7500 1218 24.3 81.9 139 15.834 10.01 0 2026-07-08 21:26:01.000
WJWJR01 Humidity 습도센서 측정값이 80% 초과 75 7500 1228 24.4 81.7 139 15.834 10.01 0 2026-07-08 20:26:03.000
WJWJR01 Humidity 습도센서 측정값이 80% 초과 72 7540 1224 24.6 83.7 99 11.31 7.15 0 2026-07-08 19:26:05.000
WJWJR01 Humidity 습도센서 측정값이 80% 초과 72 7530 1243 24.8 86.7 109 12.441 7.865 0 2026-07-08 18:25:57.000
WJWJR01 Humidity 습도센서 측정값이 80% 초과 72 7530 1214 24.7 84.8 109 12.441 7.865 0 2026-07-08 17:25:57.000
WJWJR01 Humidity 습도센서 측정값이 80% 초과 73 7540 1192 24.1 81.6 99 11.31 7.15 0 2026-07-08 16:25:54.000
WJWJR01 Humidity 습도센서 측정값이 80% 초과 78 7520 1214 24.2 81.7 120 13.572 8.58 0 2026-07-08 15:26:04.000
WJWJR01 Humidity 습도센서 측정값이 80% 초과 73 7500 1222 24.1 82.1 139 15.834 10.01 0 2026-07-08 14:25:59.000
WJWJR01 Humidity 습도센서 측정값이 80% 초과 72 7540 1244 24 82.3 99 11.31 7.15 0 2026-07-08 13:26:03.000
WJWJR01 Humidity 습도센서 측정값이 80% 초과 73 7540 1214 24.1 82.1 99 11.31 7.15 0 2026-07-08 12:26:03.000
WJWJR01 Humidity 습도센서 측정값이 80% 초과 74 7510 1207 24.1 82.1 129 14.703 9.295 0 2026-07-08 11:25:58.000
WJWJR01 Humidity 습도센서 측정값이 80% 초과 75 7550 1197 24.2 82.1 89 10.179 6.435 0 2026-07-08 10:26:05.000
WJWJR01 Humidity 습도센서 측정값이 80% 초과 72 7500 1228 24.3 82.2 139 15.834 10.01 0 2026-07-08 09:26:03.000
WJWJR01 Humidity 습도센서 측정값이 80% 초과 74 7490 1208 24.4 82.2 149 16.965 10.725 0 2026-07-08 08:26:01.000
WJWJR01 Humidity 습도센서 측정값이 80% 초과 73 7540 1204 24.6 82.2 99 11.31 7.15 0 2026-07-08 07:25:58.000
WJWJR01 Humidity 습도센서 측정값이 80% 초과 77 7470 1232 24.6 82.3 169 19.227 12.155 0 2026-07-08 06:26:00.000
WJWJR01 Humidity 습도센서 측정값이 80% 초과 78 7520 1222 24.8 82.4 120 13.572 8.58 0 2026-07-08 05:26:02.000

[첫 페이지] [37] [38] [39] [40] 41 [42] [43] [44] [45] [마지막 페이지]